Location: Poughquag
(41.6090°N, 73.6820°W)
Time: 04:51:09
(UTC-04:00)

ACS3 Solar Sail - Pass Details

Date: 26 June 2024
Orbit: 993 x 1022 km, 97.4° (Epoch: 23 July)

Event Time Altitude Azimuth Distance (km) Brightness Sun altitude
Exits shadow 00:16:03 - 240° (WSW) 3,170 7.3 -24.3°
Reaches altitude 10° 00:18:58 10° 264° (W) 2,762 7.2 -24.4°
Maximum altitude 00:20:11 11° 276° (W) 2,721 7.3 -24.5°
Drops below altitude 10° 00:21:25 10° 287° (WNW) 2,763 7.5 -24.5°
Sets 00:26:41 0° 325° (NW) 3,717 8.9 -24.7°
